TimeEST,TemperatureF,Dew PointF,Humidity,Sea Level PressureIn,VisibilityMPH,Wind Direction,Wind SpeedMPH,Gust SpeedMPH,PrecipitationIn,Events,Conditions,WindDirDegrees,DateUTC
12:05 AM,33.8,32.0,93,29.75,1.5,Calm,Calm,-,N/A,,Mist,0,2013-02-14 05:05:00
12:25 AM,33.8,32.0,93,29.76,1.5,Calm,Calm,-,N/A,,Mist,0,2013-02-14 05:25:00
12:45 AM,33.8,30.2,87,29.76,1.5,Calm,Calm,-,N/A,,Mist,0,2013-02-14 05:45:00
1:05 AM,32.0,30.2,93,29.77,1.2,Calm,Calm,-,N/A,,Mist,0,2013-02-14 06:05:00
1:25 AM,32.0,30.2,93,29.78,1.8,Calm,Calm,-,N/A,,Mist,0,2013-02-14 06:25:00
1:45 AM,32.0,30.2,93,29.79,2.5,West,3.5,-,N/A,,Mist,270,2013-02-14 06:45:00
2:10 AM,32.0,30.2,93,29.80,1.8,Calm,Calm,-,N/A,,Mist,0,2013-02-14 07:10:00
2:30 AM,32.0,30.2,93,29.80,3.0,West,5.8,-,N/A,,Mist,270,2013-02-14 07:30:00
2:50 AM,33.8,30.2,87,29.82,5.0,West,6.9,-,N/A,,Mist,280,2013-02-14 07:50:00
3:10 AM,33.8,32.0,93,29.82,5.0,West,5.8,-,N/A,,Mist,280,2013-02-14 08:10:00
3:30 AM,33.8,30.2,87,29.82,7.0,West,4.6,-,N/A,,Unknown,270,2013-02-14 08:30:00
3:50 AM,32.0,30.2,93,29.83,5.0,West,4.6,-,N/A,,Mist,260,2013-02-14 08:50:00
4:10 AM,30.2,28.4,93,29.84,2.0,WSW,4.6,-,N/A,,Mist,240,2013-02-14 09:10:00
4:30 AM,28.4,28.4,100,29.85,0.5,WSW,3.5,-,N/A,Fog,Light Freezing Fog,250,2013-02-14 09:30:00
4:50 AM,28.4,28.4,100,29.87,1.8,WSW,3.5,-,N/A,,Mist,240,2013-02-14 09:50:00
5:10 AM,28.4,28.4,100,29.88,2.5,Calm,Calm,-,N/A,,Mist,0,2013-02-14 10:10:00
5:30 AM,28.4,26.6,93,29.88,0.8,West,3.5,-,N/A,,Mist,270,2013-02-14 10:30:00
5:50 AM,28.4,28.4,100,29.89,5.0,WNW,5.8,-,N/A,,Mist,300,2013-02-14 10:50:00
6:10 AM,30.2,28.4,93,29.90,7.0,WNW,6.9,-,N/A,,Unknown,290,2013-02-14 11:10:00
6:30 AM,30.2,28.4,93,29.91,7.0,West,4.6,-,N/A,,Unknown,270,2013-02-14 11:30:00
6:50 AM,30.2,28.4,93,29.92,7.0,West,4.6,-,N/A,,Unknown,270,2013-02-14 11:50:00
7:10 AM,30.2,26.6,86,29.93,5.0,West,4.6,-,N/A,,Mist,270,2013-02-14 12:10:00
7:30 AM,30.2,26.6,86,29.94,7.0,West,5.8,-,N/A,,Unknown,280,2013-02-14 12:30:00
7:50 AM,30.2,26.6,86,29.95,7.0,WNW,4.6,-,N/A,,Unknown,300,2013-02-14 12:50:00
8:10 AM,30.2,26.6,86,29.95,7.0,WNW,3.5,-,N/A,,Unknown,300,2013-02-14 13:10:00
8:30 AM,30.2,28.4,93,29.96,7.0,Calm,Calm,-,N/A,,Unknown,0,2013-02-14 13:30:00
8:50 AM,32.0,28.4,87,29.96,7.0,Calm,Calm,-,N/A,,Unknown,0,2013-02-14 13:50:00
9:10 AM,33.8,28.4,81,29.97,7.0,WNW,5.8,-,N/A,,Unknown,290,2013-02-14 14:10:00
9:30 AM,33.8,28.4,81,29.97,7.0,WNW,4.6,-,N/A,,Unknown,290,2013-02-14 14:30:00
9:50 AM,33.8,28.4,81,29.98,7.0,West,5.8,-,N/A,,Unknown,280,2013-02-14 14:50:00
10:10 AM,33.8,28.4,81,29.99,7.0,West,6.9,-,N/A,,Unknown,280,2013-02-14 15:10:00
10:30 AM,33.8,28.4,81,29.99,10.0,West,6.9,-,N/A,,Unknown,280,2013-02-14 15:30:00
10:50 AM,35.6,28.4,75,29.99,10.0,WNW,3.5,-,N/A,,Unknown,300,2013-02-14 15:50:00
11:10 AM,35.6,28.4,75,29.99,10.0,WNW,4.6,-,N/A,,Unknown,300,2013-02-14 16:10:00
11:30 AM,35.6,28.4,75,29.98,10.0,WNW,4.6,-,N/A,,Unknown,290,2013-02-14 16:30:00
11:50 AM,37.4,28.4,70,29.98,10.0,WSW,4.6,-,N/A,,Unknown,250,2013-02-14 16:50:00
12:10 PM,37.4,26.6,65,29.98,10.0,WNW,5.8,-,N/A,,Unknown,290,2013-02-14 17:10:00
12:30 PM,39.2,28.4,65,29.97,10.0,Calm,Calm,-,N/A,,Unknown,0,2013-02-14 17:30:00
12:50 PM,39.2,28.4,65,29.97,10.0,WSW,3.5,-,N/A,,Unknown,240,2013-02-14 17:50:00
1:10 PM,39.2,28.4,65,29.97,10.0,South,4.6,-,N/A,,Unknown,170,2013-02-14 18:10:00
1:30 PM,41.0,28.4,61,29.97,10.0,SW,3.5,-,N/A,,Unknown,230,2013-02-14 18:30:00
1:50 PM,41.0,28.4,61,29.96,10.0,WSW,5.8,-,N/A,,Unknown,240,2013-02-14 18:50:00
2:10 PM,41.0,28.4,61,29.96,10.0,Calm,Calm,-,N/A,,Unknown,0,2013-02-14 19:10:00
2:30 PM,42.8,26.6,53,29.95,10.0,WNW,4.6,-,N/A,,Unknown,300,2013-02-14 19:30:00
2:50 PM,44.6,28.4,53,29.95,10.0,SW,6.9,-,N/A,,Unknown,220,2013-02-14 19:50:00
3:10 PM,42.8,28.4,57,29.95,10.0,Calm,Calm,-,N/A,,Unknown,0,2013-02-14 20:10:00
3:30 PM,44.6,28.4,53,29.95,10.0,WSW,5.8,-,N/A,,Unknown,240,2013-02-14 20:30:00
3:50 PM,44.6,28.4,53,29.95,10.0,SSW,4.6,-,N/A,,Unknown,200,2013-02-14 20:50:00
4:10 PM,44.6,28.4,53,29.96,10.0,SSW,8.1,-,N/A,,Unknown,210,2013-02-14 21:10:00
4:30 PM,44.6,28.4,53,29.95,10.0,SSW,4.6,-,N/A,,Unknown,200,2013-02-14 21:30:00
4:50 PM,44.6,28.4,53,29.96,10.0,WSW,5.8,-,N/A,,Unknown,240,2013-02-14 21:50:00
5:10 PM,44.6,28.4,53,29.96,10.0,SSW,8.1,-,N/A,,Unknown,210,2013-02-14 22:10:00
5:30 PM,42.8,28.4,57,29.96,10.0,South,3.5,-,N/A,,Unknown,190,2013-02-14 22:30:00
5:50 PM,42.8,28.4,57,29.96,10.0,South,4.6,-,N/A,,Unknown,170,2013-02-14 22:50:00
6:10 PM,41.0,28.4,61,29.97,10.0,South,3.5,-,N/A,,Unknown,170,2013-02-14 23:10:00
6:30 PM,41.0,28.4,61,29.97,10.0,South,4.6,-,N/A,,Unknown,170,2013-02-14 23:30:00
6:50 PM,39.2,28.4,65,29.97,10.0,SSE,3.5,-,N/A,,Unknown,160,2013-02-14 23:50:00
7:10 PM,39.2,28.4,65,29.97,10.0,SSE,4.6,-,N/A,,Unknown,160,2013-02-15 00:10:00
7:30 PM,37.4,28.4,70,29.98,10.0,Calm,Calm,-,N/A,,Unknown,0,2013-02-15 00:30:00
7:50 PM,39.2,26.6,61,29.98,10.0,South,3.5,-,N/A,,Unknown,180,2013-02-15 00:50:00
8:10 PM,37.4,26.6,65,29.98,10.0,Calm,Calm,-,N/A,,Unknown,0,2013-02-15 01:10:00
8:30 PM,37.4,26.6,65,29.99,10.0,SSE,4.6,-,N/A,,Unknown,160,2013-02-15 01:30:00
8:50 PM,37.4,26.6,65,29.98,10.0,SSE,6.9,-,N/A,,Unknown,160,2013-02-15 01:50:00
9:10 PM,37.4,26.6,65,29.98,10.0,SSE,4.6,-,N/A,,Unknown,160,2013-02-15 02:10:00
9:30 PM,37.4,26.6,65,29.98,10.0,SSE,5.8,-,N/A,,Unknown,160,2013-02-15 02:30:00
9:50 PM,37.4,26.6,65,29.98,10.0,South,5.8,-,N/A,,Unknown,170,2013-02-15 02:50:00
10:10 PM,35.6,26.6,70,29.97,10.0,South,4.6,-,N/A,,Unknown,170,2013-02-15 03:10:00
10:30 PM,35.6,26.6,70,29.97,10.0,Calm,Calm,-,N/A,,Unknown,0,2013-02-15 03:30:00
10:50 PM,37.4,26.6,65,29.97,10.0,South,5.8,-,N/A,,Unknown,170,2013-02-15 03:50:00
11:10 PM,37.4,26.6,65,29.97,10.0,South,3.5,-,N/A,,Unknown,170,2013-02-15 04:10:00
11:30 PM,35.6,26.6,70,29.97,10.0,South,6.9,-,N/A,,Unknown,170,2013-02-15 04:30:00
11:50 PM,37.4,26.6,65,29.98,10.0,South,9.2,-,N/A,,Unknown,170,2013-02-15 04:50:00